Tracking 28790 objects as of 19-Apr-2024
HD Live streaming from Space Station
objects crossing your sky now

DMSP 5D-2 F13 DEB

Track DMSP 5D-2 F13 DEB now!
10-day predictions


NORAD ID: 40441
Int'l Code: 1995-015AT
Perigee: 819.5 km
Apogee: 852.7 km
Inclination: 98.9 °
Period: 101.5 minutes
Semi major axis: 7207 km
RCS: Unknown
Launch date: March 24, 1995
Source: United States (US)
Launch site: AIR FORCE WESTERN TEST RANGE (AFWTR)

Note: This is SATELLITE DEBRIS
Your satellite tracking list
Your tracking list is empty




NASA's NSSDC Master Catalog

Two Line Element Set (TLE):
1 40441U 95015AT  24109.47148476  .00006056  00000-0  29174-2 0  9992
2 40441  98.8563 121.4824 0023095 358.2401   1.8689 14.18932541471370
Source of the keplerian elements: AFSPC